ボアッティーニ彗星

P/2009 B1 ( Boattini )

English version
Home page
Updated on May 9, 2009

---------------------------------------------------------------------

・ プロフィール

発見日 2009年1月21日
発見光度 18.2等
発見者 A. Boattini (Catalina Sky Survey)

・ 写真集

・ 軌道要素

Epoch 2009 Feb. 18.0 TT = JDT 2454880.5
T 2009 Feb. 6.24081 TT                                  MPC
q   2.4263294            (2000.0)            P               Q
n   0.05700042     Peri.  128.60571     +0.35441764     -0.87274581
a   6.6867850      Node   297.44345     +0.69633948     +0.48594794
e   0.6371456      Incl.   22.22731     +0.62409892     -0.04657631
P  17.29

・ 光度変化

        m1 = 13.0 + 5 logΔ + 10.0 log r

---------------------------------------------------------------------

軌道要素はM.P.E.C. 2009-B50に掲載されたものです。
光度グラフはComet for Windowsで作成したものです。

---------------------------------------------------------------------

Copyright(C) Seiichi Yoshida (comet@aerith.net). All rights reserved.